LIM260 LIMC-LIMJ

Flight info

Callsign LIM260
Flight time N/A
Altitude 17000
Route ROBAS DCT GEN
Aircraft TBM8/L-SDFGRWY/S

Departure

Time 2026-05-06 07:40
Airport Milan Malpensa International Airport (LIMC)

Arrival

Time N/A
Airport Genoa Cristoforo Colombo Airport (LIMJ)
Time Latitude Longitude Altitude Speed Heading
2026-05-06 07:29 45.62919 8.71886 731 ft 0 kts 79°
2026-05-06 07:34 45.62919 8.71885 731 ft 0 kts 79°
2026-05-06 07:36 45.62918 8.71885 731 ft 0 kts 79°
2026-05-06 07:36 45.62938 8.71933 731 ft 9 kts 23°
2026-05-06 07:36 45.63002 8.71931 731 ft 9 kts 345°
2026-05-06 07:37 45.63069 8.71911 731 ft 13 kts 348°
2026-05-06 07:37 45.63206 8.71867 731 ft 26 kts 346°
2026-05-06 07:37 45.63382 8.71828 731 ft 25 kts 349°
2026-05-06 07:37 45.63496 8.71894 731 ft 20 kts
2026-05-06 07:38 45.63653 8.71860 731 ft 26 kts 348°
2026-05-06 07:38 45.63826 8.71827 731 ft 24 kts
2026-05-06 07:38 45.63898 8.71901 732 ft 18 kts 66°
2026-05-06 07:38 45.63903 8.72045 732 ft 9 kts 123°
2026-05-06 07:39 45.63881 8.72062 732 ft 0 kts 172°
2026-05-06 07:39 45.63699 8.72109 733 ft 60 kts 169°
2026-05-06 07:39 45.63089 8.72277 750 ft 113 kts 168°
2026-05-06 07:40 45.62217 8.72506 927 ft 143 kts 168°
2026-05-06 07:40 45.61216 8.72769 1428 ft 147 kts 168°
2026-05-06 07:40 45.60177 8.72838 2002 ft 153 kts 175°
2026-05-06 07:40 45.59121 8.72876 2574 ft 151 kts 171°
2026-05-06 07:41 45.58080 8.72973 3166 ft 149 kts 172°
2026-05-06 07:41 45.57046 8.73074 3715 ft 150 kts 172°
2026-05-06 07:41 45.56004 8.73175 4273 ft 150 kts 173°
2026-05-06 07:41 45.54957 8.73278 4808 ft 152 kts 174°
2026-05-06 07:42 45.53900 8.73381 5350 ft 153 kts 174°
2026-05-06 07:42 45.52837 8.73483 5885 ft 154 kts 174°
2026-05-06 07:42 45.51799 8.73753 6384 ft 156 kts 153°
2026-05-06 07:42 45.51074 8.74925 6891 ft 160 kts 125°
2026-05-06 07:43 45.50461 8.76252 7387 ft 161 kts 128°
2026-05-06 07:43 45.49684 8.77362 7880 ft 158 kts 158°
2026-05-06 07:43 45.48619 8.77680 8399 ft 157 kts 172°
2026-05-06 07:43 45.47540 8.77981 8926 ft 159 kts 169°
2026-05-06 07:44 45.46466 8.78382 9460 ft 160 kts 166°
2026-05-06 07:44 45.45400 8.78874 9964 ft 162 kts 164°
2026-05-06 07:44 45.44358 8.79448 10444 ft 163 kts 161°
2026-05-06 07:44 45.43305 8.80127 10937 ft 165 kts 159°
2026-05-06 07:45 45.42296 8.80871 11488 ft 166 kts 156°
2026-05-06 07:45 45.41280 8.81722 11988 ft 168 kts 154°
2026-05-06 07:45 45.40313 8.82634 12464 ft 170 kts 152°
2026-05-06 07:45 45.39355 8.83643 12955 ft 172 kts 149°
2026-05-06 07:46 45.38425 8.84731 13451 ft 174 kts 147°
2026-05-06 07:46 45.37521 8.85902 13899 ft 177 kts 144°
2026-05-06 07:46 45.36649 8.87150 14331 ft 179 kts 142°
2026-05-06 07:46 45.35813 8.88473 14772 ft 181 kts 140°
2026-05-06 07:47 45.35013 8.89869 15201 ft 183 kts 137°
2026-05-06 07:47 45.34249 8.91337 15633 ft 186 kts 135°
2026-05-06 07:47 45.33526 8.92877 16063 ft 188 kts 133°
2026-05-06 07:47 45.32845 8.94482 16504 ft 191 kts 130°
2026-05-06 07:48 45.32205 8.96157 16886 ft 197 kts 128°
2026-05-06 07:48 45.31552 8.97989 16896 ft 218 kts 126°
2026-05-06 07:48 45.30877 9.00008 16869 ft 234 kts 124°
2026-05-06 07:48 45.30199 9.02184 16868 ft 250 kts 122°
2026-05-06 07:49 45.29507 9.04529 16866 ft 262 kts 123°
2026-05-06 07:49 45.28566 9.06756 16867 ft 266 kts 133°
2026-05-06 07:49 45.27479 9.08892 16869 ft 267 kts 134°
2026-05-06 07:49 45.26374 9.11015 16866 ft 267 kts 134°
2026-05-06 07:50 45.25259 9.13121 16865 ft 265 kts 137°
2026-05-06 07:50 45.23859 9.14685 16866 ft 253 kts 157°
2026-05-06 07:50 45.22294 9.15800 16865 ft 252 kts 160°
2026-05-06 07:50 45.20734 9.16948 16865 ft 253 kts 158°
2026-05-06 07:51 45.19196 9.18184 16864 ft 254 kts 156°
2026-05-06 07:51 45.17685 9.19500 16853 ft 256 kts 154°
2026-05-06 07:51 45.16200 9.20894 16854 ft 257 kts 152°
2026-05-06 07:51 45.14741 9.22365 16852 ft 258 kts 150°
2026-05-06 07:52 45.13284 9.23840 16849 ft 253 kts 158°
2026-05-06 07:52 45.11632 9.24496 16850 ft 245 kts 177°
2026-05-06 07:52 45.09940 9.24697 16851 ft 244 kts 180°
2026-05-06 07:52 45.08246 9.24838 16851 ft 244 kts 180°
2026-05-06 07:53 45.06551 9.24968 16850 ft 244 kts 180°
2026-05-06 07:53 45.04853 9.25093 16851 ft 244 kts 180°
2026-05-06 07:53 45.03153 9.25217 16853 ft 245 kts 180°
2026-05-06 07:53 45.01448 9.25339 16849 ft 246 kts 180°
2026-05-06 07:54 44.99740 9.25458 16859 ft 246 kts 180°
2026-05-06 07:54 44.98026 9.25576 16847 ft 247 kts 181°
2026-05-06 07:54 44.96305 9.25700 16853 ft 248 kts 180°
2026-05-06 07:54 44.94582 9.25824 16852 ft 248 kts 180°
2026-05-06 07:55 44.92859 9.25944 16856 ft 248 kts 180°
2026-05-06 07:55 44.91137 9.26063 16859 ft 248 kts 180°
2026-05-06 07:55 44.89411 9.26183 16853 ft 249 kts 180°
2026-05-06 07:55 44.87680 9.26302 16853 ft 248 kts 180°
2026-05-06 07:56 44.85954 9.26421 16850 ft 249 kts 180°
2026-05-06 07:56 44.84224 9.26544 16852 ft 249 kts 180°
2026-05-06 07:56 44.82494 9.26673 16850 ft 249 kts 180°
2026-05-06 07:56 44.80759 9.26805 16859 ft 250 kts 180°
2026-05-06 07:57 44.79019 9.26938 16845 ft 250 kts 180°
2026-05-06 07:57 44.77280 9.27073 16856 ft 250 kts 180°
2026-05-06 07:57 44.75529 9.27205 16659 ft 257 kts 180°
2026-05-06 07:57 44.74516 9.27278 16456 ft 264 kts 180°
2026-05-06 07:58 44.73291 9.27363 16213 ft 268 kts 180°
2026-05-06 07:58 44.73178 9.27371 16200 ft 269 kts 181°
2026-05-06 07:58 44.71502 9.27483 15880 ft 273 kts 180°
2026-05-06 07:58 44.69588 9.27610 15532 ft 276 kts 180°
2026-05-06 07:59 44.67675 9.27742 15189 ft 276 kts 180°
2026-05-06 07:59 44.65746 9.27876 14833 ft 278 kts 180°
2026-05-06 07:59 44.63830 9.28008 14494 ft 275 kts 180°
2026-05-06 07:59 44.61924 9.28135 14180 ft 275 kts 180°
2026-05-06 08:00 44.60010 9.28257 13841 ft 275 kts 180°
2026-05-06 08:00 44.58108 9.28371 13492 ft 275 kts 180°
2026-05-06 08:00 44.56191 9.28491 13120 ft 275 kts 180°
2026-05-06 08:00 44.54288 9.28620 12699 ft 273 kts 180°
2026-05-06 08:01 44.52449 9.28757 11868 ft 248 kts 180°
2026-05-06 08:01 44.50829 9.28944 11124 ft 227 kts 178°
2026-05-06 08:01 44.49312 9.29209 10479 ft 214 kts 176°
2026-05-06 08:01 44.47869 9.29552 9842 ft 206 kts 174°
2026-05-06 08:02 44.46494 9.29968 9161 ft 200 kts 172°
2026-05-06 08:02 44.45884 9.30177 8851 ft 198 kts 171°